Regional Weather Roundup
Issued by NWS

Home | Current Version | Previous Version | Graphics & Text | Print | Product List | Glossary On
Versions: 1 2 3 4 5 6 7 8 9 10 11 12 13 14 15 16 17 18 19 20 21 22 23 24 25 26 27 28 29 30 31 32 33 34 35 36 37 38 39 40 41 42 43 44 45 46 47 48 49 50
000
ASUS43 KLSX 230157
RWRMO

WEATHER SUMMARY FOR MISSOURI
NATIONAL WEATHER SERVICE SPRINGFIELD MO
900 PM CDT SUN APR 22 2018

NOTE: "FAIR" INDICATES FEW OR NO CLOUDS BELOW 12,000 FEET WITH NO
       SIGNIFICANT WEATHER AND/OR OBSTRUCTIONS TO VISIBILITY.
       CURRENT SKY AND/OR WEATHER CONDITIONS ARE NOT AVAILABLE FOR
       CHILLICOTHE AND FARMINGTON.

MOZ001>031-035>038-043-044-053-054-230300-
...NORTHERN AND WESTERN MISSOURI...

CITY           SKY/WX    TMP DP  RH WIND       PRES   REMARKS
KANSAS CTY INT CLOUDY    61  42  49 NE8       30.09R
LEE`S SUMMIT   CLOUDY    60  44  55 NE10      30.08R
ST JOSEPH      CLOUDY    62  42  47 E7        30.11R
CHILLICOTHE      N/A     61  39  44 NE6       30.12R

$$
MOZ066>068-077>081-088>096-101>105-230300-
...SOUTHWEST MISSOURI...

CITY           SKY/WX    TMP DP  RH WIND       PRES   REMARKS
SPRINGFIELD    CLOUDY    52  50  93 NE17      29.96R
JOPLIN         CLOUDY    56  51  84 NE10G23   30.00R
BRANSON        LGT RAIN  52  52 100 NE5       29.95R

$$
MOZ032>034-039>042-045>050-055>058-069>072-230300-
...CENTRAL MISSOURI...

CITY           SKY/WX    TMP DP  RH WIND       PRES   REMARKS
COLUMBIA       NOT AVBL
JEFFERSON CITY CLOUDY    56  44  64 NE7G18    30.04F
ROLLA          CLOUDY    50  46  86 NE9       30.01S
SEDALIA        CLOUDY    58  42  55 NE7       30.07R
WARRENSBURG    CLOUDY    59  39  47 NE9G16    30.06R

$$
MOZ051-052-059>065-230300-
...EAST CENTRAL MISSOURI...

CITY           SKY/WX    TMP DP  RH WIND       PRES   REMARKS
ST LOUIS INTL  CLOUDY    60  46  59 NE8       30.05R

$$
MOZ072>076-082>087-097>100-106>115-230300-
...SOUTH CENTRAL AND SOUTHEAST MISSOURI...

CITY           SKY/WX    TMP DP  RH WIND       PRES   REMARKS
CAPE GIRARDEAU LGT RAIN  59  56  89 E14       29.94S
POPLAR BLUFF   CLOUDY    59  57  93 E8        29.92R
WEST PLAINS    CLOUDY    52  51  97 NE10      29.92S

$$



USA.gov is the U.S. government's official web portal to all federal, state and local government web resources and services.